Lake Wedowee Weather Center

Moon Phase Calendar



Lake Wedowee Water Level
Online Cameras

 


      

Current Conditions in Wedowee
6/12/2024 8:07:32 PM

79°F
Feels Like 79
Clouds
Humidity
54%
Pressure
29.91"
Wind
4 mph (W)
Dew Point
61°F
UV Index
0/10 (Low)
Visibility
6 mi

Hourly Forecast

Date & Time Wed, Jun 12
8:00 PM
Wed, Jun 12
9:00 PM
Wed, Jun 12
10:00 PM
Wed, Jun 12
11:00 PM
Thu, Jun 13
12:00 AM
Thu, Jun 13
1:00 AM
Thu, Jun 13
2:00 AM
Thu, Jun 13
3:00 AM
Thu, Jun 13
4:00 AM
Thu, Jun 13
5:00 AM
Thu, Jun 13
6:00 AM
Thu, Jun 13
7:00 AM
Thu, Jun 13
8:00 AM
Thu, Jun 13
9:00 AM
Thu, Jun 13
10:00 AM
Thu, Jun 13
11:00 AM
Thu, Jun 13
12:00 PM
Thu, Jun 13
1:00 PM
Thu, Jun 13
2:00 PM
Thu, Jun 13
3:00 PM
Thu, Jun 13
4:00 PM
Thu, Jun 13
5:00 PM
Thu, Jun 13
6:00 PM
Thu, Jun 13
7:00 PM
Thu, Jun 13
8:00 PM
Thu, Jun 13
9:00 PM
Thu, Jun 13
10:00 PM
Thu, Jun 13
11:00 PM
Fri, Jun 14
12:00 AM
Fri, Jun 14
1:00 AM
Fri, Jun 14
2:00 AM
Fri, Jun 14
3:00 AM
Fri, Jun 14
4:00 AM
Fri, Jun 14
5:00 AM
Fri, Jun 14
6:00 AM
Fri, Jun 14
7:00 AM
Fri, Jun 14
8:00 AM
Fri, Jun 14
9:00 AM
Fri, Jun 14
10:00 AM
Fri, Jun 14
11:00 AM
Fri, Jun 14
12:00 PM
Fri, Jun 14
1:00 PM
Fri, Jun 14
2:00 PM
Fri, Jun 14
3:00 PM
Fri, Jun 14
4:00 PM
Fri, Jun 14
5:00 PM
Fri, Jun 14
6:00 PM
Fri, Jun 14
7:00 PM
Condition
Clouds

Clouds

Clouds

Clouds

Clouds

Clouds

Clouds

Clouds

Clouds

Clouds

Clouds

Clouds

Clear

Clear

Clear

Clear

Clear

Clear

Clouds

Clouds

Clouds

Clouds

Clouds

Clouds

Clouds

Clouds

Clouds

Clouds

Clouds

Clouds

Clouds

Clouds

Clouds

Clouds

Clouds

Clouds

Clouds

Clouds

Clouds

Clouds

Clouds

Clouds

Clouds

Clouds

Clouds

Clouds

Clouds

Clouds
Temperature 79°F78°F76°F73°F71°F69°F68°F67°F67°F67°F67°F72°F76°F81°F85°F87°F90°F92°F92°F88°F86°F86°F87°F82°F79°F78°F78°F78°F78°F77°F76°F76°F75°F74°F73°F75°F78°F82°F87°F91°F95°F96°F92°F89°F94°F94°F89°F84°F
Feels Like 79°F78°F76°F74°F71°F69°F68°F67°F67°F67°F68°F72°F77°F83°F87°F90°F91°F92°F93°F89°F88°F88°F90°F85°F79°F79°F79°F79°F78°F77°F77°F77°F76°F74°F74°F76°F79°F85°F90°F94°F97°F98°F93°F91°F95°F95°F92°F86°F
Cloudiness 99%99%99%88%77%65%16%27%47%37%30%27%9%4%2%2%4%7%49%68%80%82%71%64%95%100%100%100%100%100%100%100%100%97%91%87%88%74%53%39%32%32%97%93%72%59%58%68%
Visibility 6 mi6 mi6 mi6 mi6 mi6 mi6 mi6 mi6 mi6 mi6 mi6 mi6 mi6 mi6 mi6 mi6 mi6 mi6 mi6 mi6 mi6 mi6 mi6 mi6 mi6 mi6 mi6 mi6 mi6 mi6 mi6 mi6 mi6 mi6 mi6 mi6 mi6 mi6 mi6 mi6 mi6 mi6 mi6 mi6 mi6 mi6 mi6 mi
Precipitation 0%0%0%0%0%0%0%0%0%0%0%0%0%0%0%21%13%5%0%0%0%0%0%0%0%0%0%0%0%0%0%0%0%0%0%0%0%0%0%0%0%0%0%0%0%0%0%0%
Humidity 54%57%62%68%71%75%75%76%77%77%78%73%65%61%54%49%43%38%36%45%49%52%52%65%67%66%66%64%65%67%67%68%69%72%75%73%68%61%50%44%38%34%40%48%35%34%49%57%
Dew Point 61°F61°F62°F62°F61°F60°F59°F59°F59°F59°F60°F62°F63°F66°F66°F66°F64°F62°F61°F63°F64°F66°F67°F68°F67°F66°F65°F65°F65°F64°F64°F64°F64°F64°F64°F66°F66°F67°F66°F65°F65°F63°F63°F65°F62°F62°F67°F66°F
Pressure 29.91"29.91"29.91"29.94"29.94"29.91"29.91"29.91"29.91"29.91"29.94"29.97"29.97"29.97"29.97"29.94"29.94"29.91"29.91"29.91"29.91"29.91"29.91"29.91"29.94"29.94"29.94"29.94"29.94"29.94"29.94"29.94"29.94"29.94"29.97"29.97"30"30"30"29.97"29.94"29.91"29.91"29.88"29.88"29.85"29.88"29.88"
Wind Speed 4 mph4.4 mph3.8 mph3.6 mph3.2 mph2.6 mph2.4 mph2.2 mph1.8 mph1.5 mph2.2 mph2.2 mph4.2 mph4.4 mph4.1 mph4.7 mph5.6 mph5.8 mph6.1 mph6.4 mph9 mph8.6 mph6.6 mph4.5 mph3.4 mph2 mph1.8 mph2.9 mph3.1 mph2.2 mph1.9 mph2.6 mph2.4 mph1.6 mph1.6 mph0.6 mph0.2 mph1.5 mph2.8 mph2.9 mph1.5 mph0.3 mph0.8 mph2.8 mph4 mph4 mph3.7 mph2.9 mph
Wind
Direction
264°
W
306°
NW
351°
N
12°
NNE
13°
NNE
27°
NNE
29°
NNE
95°
E
75°
ENE
45°
NE
87°
E
82°
E
114°
ESE
123°
ESE
133°
SE
133°
SE
129°
SE
134°
SE
139°
SE
130°
SE
120°
ESE
118°
ESE
124°
SE
119°
ESE
118°
ESE
108°
ESE
77°
ENE
108°
ESE
145°
SE
167°
SSE
185°
S
162°
SSE
154°
SSE
137°
SE
117°
ESE
151°
SSE
218°
SW
180°
S
180°
S
192°
SSW
205°
SSW
340°
NNW
348°
NNW
188°
S
182°
S
173°
S
175°
S
228°
SW

Daily Forecast

Date High Low Precip. Humidity
Today
Jun 12

Clouds
90 °F
61 °F
0%
38%
Thursday
Jun 13

Clear
92 °F
67 °F
21%
43%
Friday
Jun 14

Clouds
96 °F
73 °F
0%
38%
Saturday
Jun 15

Clear
100 °F
71 °F
0%
35%
Sunday
Jun 16

Rain
97 °F
73 °F
40%
34%
Monday
Jun 17

Rain
91 °F
70 °F
93%
43%
Tuesday
Jun 18

Clouds
86 °F
70 °F
0%
57%
Wednesday
Jun 19

Clouds
87 °F
70 °F
0%
37%
Thursday
Jun 20

Clouds
91 °F
68 °F
0%
39%
Friday
Jun 21

Rain
86 °F
67 °F
100%
52%
Saturday
Jun 22

Clouds
75 °F
70 °F
80%
93%
Sunday
Jun 23

Rain
85 °F
72 °F
100%
66%
Monday
Jun 24

Rain
80 °F
71 °F
100%
84%
Tuesday
Jun 25

Rain
82 °F
72 °F
100%
94%
Wednesday
Jun 26

Rain
93 °F
70 °F
80%
43%
Thursday
Jun 27

Rain
96 °F
70 °F
52%
35%

Temperature 8-14 Day Outlook



Precipitation 8-14 Day Outlook




Quick Links
Lake Wedowee News
Lake Wedowee Photos
Lake Wedowee Videos




About Us
Contact Us
Site Map
Search Site
Advertise With Us
   
www.LakeWedowee.info
THE LAKE WEDOWEE WEBSITE

Copyright 2024, Lakes Online
Privacy    |    Legal